SCP
1 1 1 1 1 0 0 0 0 0 0 0 0 0 0 0 0 0 0 0 0 2 3 4 5 5 5 5 5 5 4 3 3 2 2 2 2 1 1 1 1 1 1 1 1 1 1 0 0
1 1 1 1 1 0 0 0 0 0 0 0 0 0 0 0 0 0 0 0 1 2 3 4 5 6 6 6 5 5 4 4 3 3 2 2 2 2 1 1 1 1 1 1 1 1 1 0 0
1 1 1 1 1 0 0 0 0 0 0 0 0 0 0 0 0 0 0 0 1 2 3 5 6 6 6 6 6 5 5 4 3 3 3 2 2 2 2 1 1 1 1 1 1 1 0 0 0
1 1 1 1 0 0 0 0 0 0 0 0 0 0 0 0 0 0 0 0 1 2 3 5 6 7 7 7 7 6 5 5 4 3 3 3 3 3 2 2 2 2 1 1 1 1 0 0 0
1 1 1 1 0 0 0 0 0 0 0 0 0 0 0 0 0 0 0 0 1 2 4 5 6 7 7 7 7 6 6 5 4 3 3 3 3 3 3 2 2 2 1 1 1 0 0 0 0
1 1 1 0 0 0 0 0 0 0 0 0 0 0 0 0 0 0 0 1 1 3 4 5 6 6 7 7 6 6 6 6 4 3 3 3 3 3 3 3 2 2 1 1 1 0 0 0 0
1 1 1 0 0 0 0 0 0 0 0 0 0 0 0 0 0 0 0 1 2 3 4 5 6 6 6 6 6 6 5 5 4 3 3 3 3 3 3 3 2 2 1 1 0 0 0 0 0
1 1 0 0 0 0 0 0 0 0 0 0 0 0 0 0 1 1 1 1 2 3 3 4 5 5 5 5 5 5 5 4 3 3 3 3 3 3 3 2 2 2 1 1 0 0 0 0 0
1 1 0 0 0 0 0 0 0 0 0 0 0 0 0 0 0 1 1 1 2 3 3 4 5 5 5 5 5 4 4 3 3 2 2 2 2 2 2 2 1 1 1 0 0 0 0 0 0
1 1 0 0 0 0 0 0 0 0 0 0 0 0 0 0 0 0 1 1 2 3 3 4 5 5 5 5 5 4 4 3 3 2 2 2 2 2 2 1 1 1 1 0 0 0 0 0 0
0 0 0 0 0 0 0 0 0 0 0 0 0 0 0 0 0 0 1 1 2 3 3 4 4 5 5 5 5 5 4 4 3 3 2 3 3 2 2 1 1 1 0 0 0 0 0 0 0
0 0 0 0 0 0 0 0 0 0 0 0 0 0 0 0 0 1 1 1 2 3 4 3 4 5 5 6 5 5 5 4 4 3 3 3 3 3 2 2 1 1 0 0 0 0 0 0 0
0 0 0 0 0 0 0 0 0 0 0 0 0 0 0 0 0 1 1 2 2 3 4 3 4 5 6 6 6 5 5 5 4 4 4 4 4 3 2 2 1 1 0 0 0 0 0 0 0
0 0 0 0 0 0 0 0 0 0 0 0 0 0 0 0 0 1 1 2 3 3 3 3 4 5 6 6 6 5 5 5 5 4 4 4 3 3 2 2 1 0 0 0 0 0 0 0 0
0 0 0 0 0 0 0 0 0 0 0 0 0 0 0 0 0 1 1 2 3 3 3 3 4 5 5 6 6 5 5 5 5 4 4 3 3 3 2 1 1 0 0 0 0 0 0 0 0
0 0 0 0 0 0 0 0 0 0 0 0 0 0 0 0 0 1 1 2 3 3 3 3 3 4 5 6 6 6 5 5 5 4 4 3 3 2 2 1 0 0 0 0 0 0 0 0 0
0 0 0 0 0 0 0 0 0 0 0 0 0 0 0 0 0 1 1 2 3 3 3 3 3 4 4 5 5 5 5 5 5 4 3 3 3 2 2 1 0 0 0 0 0 0 0 0 0
0 0 0 0 0 0 0 0 0 0 0 0 0 0 0 0 0 1 1 1 2 3 3 2 3 3 4 5 5 5 5 4 4 4 3 3 2 2 1 0 0 0 0 0 0 0 0 0 0
0 0 0 0 0 0 0 0 0 0 0 0 0 0 0 0 1 1 1 1 2 2 2 2 3 3 3 4 5 5 4 3 3 3 3 3 2 1 1 0 0 0 0 0 0 0 0 0 0
0 0 0 0 0 0 0 0 0 0 0 0 0 0 0 0 1 1 1 1 1 2 2 2 2 3 3 3 5 5 3 2 2 2 2 2 2 1 1 0 0 0 0 0 0 0 0 0 0
0 0 0 0 0 0 0 0 0 0 0 0 0 0 0 0 0 1 1 1 2 2 2 2 2 3 3 3 3 3 3 2 1 2 2 2 1 1 0 0 0 0 0 0 0 0 0 0 0
0 0 0 0 0 0 0 0 0 0 0 0 0 0 0 0 0 1 1 1 2 2 2 2 3 3 3 2 2 2 2 1 1 1 1 1 1 1 0 0 0 0 0 0 0 0 0 0 0
0 0 0 0 0 0 0 0 0 0 0 0 0 0 0 0 0 1 1 1 2 2 3 3 3 3 3 2 2 2 2 1 1 1 1 1 1 1 0 0 0 0 0 0 0 0 0 0 0
0 0 0 0 0 0 0 0 0 0 0 0 0 0 0 0 0 0 1 1 2 2 3 3 3 3 3 2 2 2 1 1 1 1 1 1 1 0 0 0 0 0 0 0 0 0 0 0 0
0 0 0 0 0 0 0 0 0 0 0 0 0 0 0 0 0 0 1 1 1 2 2 3 3 3 2 2 1 1 1 1 1 1 1 1 1 0 0 0 0 0 0 0 0 0 0 0 0
0 0 0 0 0 0 0 0 0 0 0 0 0 0 0 0 0 0 0 1 1 1 2 2 2 2 2 1 1 1 1 1 1 1 1 1 0 0 0 0 0 0 0 0 0 0 0 0 0
0 0 0 0 0 0 0 0 0 0 0 0 0 0 0 0 0 0 0 0 1 1 1 1 2 2 2 1 1 1 1 1 1 1 1 1 0 0 0 0 0 0 0 0 0 0 0 0 0
0 0 0 0 0 0 0 0 0 0 0 0 0 0 0 0 0 0 0 0 0 1 1 1 2 2 2 1 1 1 1 1 1 1 1 1 0 0 0 0 0 0 0 0 0 0 0 0 0
0 0 0 0 0 0 0 0 0 0 0 0 0 0 0 0 0 0 0 0 0 0 1 1 2 2 1 1 1 1 1 1 1 1 1 1 1 0 0 0 0 0 0 0 0 0 0 0 0
0 0 0 0 0 0 0 0 0 0 0 0 0 0 0 0 0 0 0 0 0 0 1 1 2 2 1 1 1 1 1 1 1 1 1 1 1 0 0 0 0 0 0 0 0 0 0 0 0
Wind_Speed
6 4 3 4 7 11 21 17 12 10 9 10 9 9 10 13 10 3 4 4 8 14 19 22 20 21 21 21 20 19 19 19 19 19 19 19 19 18 18 17 17 16 16 16 16 17 16 16 16
4 4 5 6 11 17 18 18 19 16 10 5 10 12 12 13 11 5 1 4 9 14 18 21 21 21 21 21 20 20 20 20 20 19 19 19 19 18 18 18 17 16 16 17 17 17 16 15 15
4 6 6 8 16 22 19 10 12 14 13 10 9 10 12 9 7 5 2 6 10 14 17 19 20 21 21 21 21 21 20 20 20 20 19 19 19 18 18 18 17 17 17 17 17 16 16 15 15
3 5 7 13 27 26 22 13 6 10 11 13 12 10 8 6 4 2 1 7 11 14 17 19 21 21 21 21 21 21 21 20 20 20 20 19 19 18 18 17 17 17 17 17 17 16 16 15 15
4 6 12 20 30 25 20 18 13 14 12 11 13 15 12 5 4 3 3 8 11 14 15 19 21 22 22 21 21 21 21 20 20 20 19 19 19 18 18 17 17 17 17 17 16 16 15 15 14
5 7 14 23 28 24 21 18 17 19 17 13 13 17 16 7 5 4 4 8 10 13 15 17 20 21 21 21 21 21 21 21 20 20 19 19 19 19 18 18 17 17 17 17 16 15 15 14 14
7 10 20 25 24 24 19 16 18 19 21 17 13 16 15 10 5 4 4 7 9 12 14 16 20 20 20 20 20 20 20 20 20 19 19 18 18 18 18 18 17 17 16 16 16 15 15 14 13
6 8 19 23 24 24 18 16 16 18 20 16 15 16 14 6 2 3 4 7 9 11 14 15 18 20 20 19 19 19 19 19 19 18 17 16 17 17 17 17 16 16 16 15 15 14 14 13 13
6 11 19 22 21 19 15 16 15 15 18 17 17 18 13 8 5 4 5 7 9 12 13 15 17 18 18 19 19 19 18 18 17 16 16 16 14 15 14 14 15 16 16 15 15 14 14 13 12
8 14 21 19 18 19 17 17 16 16 20 20 19 17 13 11 9 10 9 11 13 15 16 15 16 17 17 15 16 15 14 15 15 15 17 13 12 11 11 14 13 14 14 14 14 14 13 9 8
9 15 17 17 18 17 19 19 16 19 22 22 20 18 14 14 13 14 14 13 15 16 16 16 16 16 16 12 12 10 9 11 14 16 16 12 10 9 9 9 10 11 12 10 11 11 7 6 6
12 16 18 17 16 18 19 19 19 21 23 21 20 18 16 16 16 16 15 15 14 15 17 17 17 15 15 13 12 11 10 9 10 13 15 11 8 9 9 7 8 8 7 8 8 5 7 7 7
15 17 17 17 17 18 20 22 23 24 22 20 20 18 19 19 18 17 16 16 16 16 17 17 16 16 14 13 11 11 12 11 12 11 13 13 10 10 10 8 7 8 7 8 7 7 8 7 7
11 15 18 18 19 18 19 22 22 24 20 20 20 20 19 19 19 17 17 17 17 17 17 16 17 17 15 13 12 12 12 12 12 11 13 14 11 10 10 9 8 8 8 7 7 8 7 6 5
12 16 18 16 16 15 16 20 21 20 17 19 20 19 19 19 18 18 18 17 17 17 17 17 17 17 16 15 14 11 11 12 11 11 14 14 13 12 11 9 9 8 8 9 7 8 6 5 5
11 12 12 11 11 12 13 21 18 15 16 19 19 18 18 18 19 18 18 17 17 17 18 18 15 17 17 14 14 11 12 12 11 11 12 15 14 14 11 9 9 9 8 8 7 7 7 6 6
7 10 15 15 10 11 13 20 18 16 17 19 19 18 17 18 17 17 17 17 16 17 18 18 18 18 17 15 12 11 12 12 11 11 11 13 15 15 12 9 9 11 9 8 8 7 7 7 6
11 14 16 17 12 14 17 21 21 18 18 20 19 18 17 18 18 16 15 16 15 16 17 18 18 18 16 12 10 9 11 11 11 11 12 15 13 15 12 10 11 11 9 8 9 9 7 6 6
15 17 20 20 16 16 19 22 22 18 17 18 18 17 16 16 16 14 13 13 13 15 16 17 17 17 14 11 11 11 11 11 11 11 14 16 15 15 13 10 12 11 10 10 11 9 9 7 6
15 17 19 17 14 15 18 22 21 17 16 15 16 16 15 14 13 12 12 12 12 14 15 17 17 17 17 13 12 11 11 9 11 10 13 16 16 16 13 13 12 12 10 12 12 10 8 7 7
14 15 16 18 20 14 15 17 15 11 11 12 13 13 12 13 13 11 11 11 11 12 13 13 16 17 17 16 11 10 9 8 9 12 12 15 16 16 15 15 13 13 11 11 12 12 11 8 8
14 11 15 17 15 10 9 12 11 10 9 9 9 9 9 10 11 10 10 10 11 11 10 13 15 16 17 16 14 16 13 12 11 12 11 14 16 16 16 16 15 14 12 12 12 12 10 10 8
10 14 16 17 14 13 11 11 9 7 9 9 8 7 7 7 8 9 9 9 9 8 9 11 13 15 17 17 17 17 15 12 10 12 15 15 15 16 16 16 14 14 12 13 13 13 12 10 9
11 13 14 10 8 9 8 8 8 6 9 9 8 8 7 6 7 7 7 7 6 6 7 9 12 14 15 17 18 19 18 16 15 15 15 13 12 13 17 16 15 14 12 13 13 13 14 11 11
7 8 5 4 4 6 4 7 5 8 10 10 9 9 9 8 6 6 6 6 5 5 6 8 11 12 14 16 18 18 18 18 18 16 16 15 12 12 16 16 15 14 13 13 13 13 13 13 13
7 5 6 7 6 8 6 6 3 7 9 9 9 9 10 9 8 7 6 6 5 5 6 7 10 11 12 14 16 16 17 14 13 16 15 15 13 13 16 17 16 16 15 14 14 12 13 12 13
5 4 5 7 9 9 6 4 3 7 10 11 12 11 11 11 10 8 7 6 6 6 5 7 9 10 11 13 14 15 16 15 15 16 16 13 13 13 17 18 17 17 16 16 15 11 14 12 13
5 6 4 5 7 7 6 5 6 11 13 13 14 13 12 11 11 10 8 7 7 6 6 5 7 8 10 12 12 11 15 16 15 14 15 15 15 15 16 17 17 17 16 16 15 12 13 14 12
4 3 4 5 6 7 7 4 5 8 11 12 13 13 12 12 11 11 10 9 7 7 5 3 4 6 8 10 12 12 13 14 15 14 15 15 14 16 16 17 17 17 16 16 15 14 14 15 13
5 5 4 5 6 7 8 5 3 8 10 11 13 13 13 12 11 10 10 10 8 7 5 3 3 5 7 8 10 12 12 13 15 15 16 15 15 15 15 16 16 16 16 16 16 16 15 15 15
Wind_Direction
288 242 216 215 226 232 239 233 232 233 230 229 221 218 226 226 221 232 55 163 171 166 168 168 170 168 166 164 160 157 155 153 152 150 148 145 142 139 137 135 132 129 128 125 122 118 115 112 110
275 213 206 219 232 234 238 236 233 232 229 222 221 229 236 241 244 289 30 161 175 170 170 172 169 169 167 163 161 158 155 153 152 150 148 146 144 141 139 136 134 131 128 125 122 118 116 115 113
254 217 218 222 230 235 239 230 242 240 235 228 226 232 240 240 233 245 55 163 176 174 174 170 169 169 167 164 161 159 156 154 153 150 149 147 145 143 140 137 134 130 128 126 123 121 120 118 116
230 207 228 234 237 236 246 246 245 244 232 231 238 237 226 243 272 300 103 177 181 177 177 170 170 170 168 164 161 158 157 156 154 152 150 148 145 143 141 137 134 131 130 128 126 124 122 120 118
235 223 227 235 242 244 246 253 253 248 238 232 234 244 243 224 259 288 218 192 188 180 179 173 172 171 168 164 162 160 158 157 155 153 150 148 145 142 139 136 135 134 134 132 129 127 126 123 120
226 225 233 239 245 246 246 248 251 253 250 246 246 251 253 246 258 269 231 205 196 184 181 175 173 171 169 165 163 161 159 157 156 154 151 149 145 141 139 138 138 138 137 134 132 131 127 125 124
236 235 243 249 255 253 250 249 248 251 252 249 254 259 255 246 267 266 228 208 199 189 183 178 177 173 169 166 163 161 159 157 156 154 152 149 146 145 144 142 140 140 139 137 135 133 130 128 126
248 250 251 250 255 258 260 257 252 254 259 263 258 256 258 263 291 252 225 209 200 194 190 183 181 178 174 170 164 161 159 158 156 153 149 145 145 146 144 145 143 142 141 139 138 136 133 128 126
238 243 246 248 255 264 268 267 262 265 265 261 257 262 278 295 275 249 223 211 203 198 196 189 184 181 177 174 167 164 160 156 154 151 145 148 155 151 151 144 144 145 143 142 140 137 131 128 125
224 244 252 259 268 275 272 270 275 268 261 258 257 262 267 268 264 248 232 218 209 202 198 193 189 183 178 174 170 171 167 163 166 163 160 162 158 153 149 137 144 144 142 141 139 134 135 143 137
240 252 267 270 274 279 277 271 271 269 262 259 262 266 266 261 258 257 242 227 216 207 201 196 194 186 180 174 171 171 168 169 170 166 165 161 154 148 150 150 146 147 149 146 139 147 155 151 138
257 265 272 274 278 277 275 275 267 260 265 273 271 270 262 259 256 252 250 236 224 214 207 201 195 189 183 177 173 170 169 169 167 167 166 161 156 158 156 157 157 157 157 152 157 156 152 148 150
260 270 274 276 277 275 274 268 268 263 265 270 269 262 256 253 254 255 253 247 229 221 211 205 196 192 185 177 175 173 171 169 167 167 168 164 160 162 160 159 160 161 157 161 159 159 155 156 155
273 279 278 278 277 273 269 269 266 263 262 265 262 258 254 253 251 252 250 246 233 222 216 208 200 193 187 181 177 175 171 167 167 169 170 168 164 164 163 161 163 162 164 165 166 163 160 160 163
280 282 278 268 265 265 273 268 258 263 267 266 262 256 253 253 249 247 248 245 237 225 218 210 203 195 190 184 179 176 171 167 167 169 172 172 168 167 166 165 166 166 166 166 166 160 163 162 166
276 271 273 275 273 270 262 266 267 271 272 271 266 258 253 252 250 248 248 246 239 229 218 212 204 197 192 187 181 176 172 167 167 169 172 174 172 170 168 168 169 167 166 169 168 168 170 171 179
253 272 281 289 282 279 265 272 277 275 271 269 268 262 253 252 250 248 245 245 239 231 220 213 205 199 193 188 183 177 173 169 167 168 172 175 174 173 171 171 168 168 170 174 172 176 178 177 180
298 294 289 287 291 285 276 275 280 278 271 268 265 261 253 251 250 250 245 243 238 231 222 213 206 201 192 186 181 173 174 170 168 171 174 174 175 176 175 172 172 171 173 176 178 177 179 180 177
289 286 288 288 290 289 279 279 280 282 274 268 263 259 253 249 251 250 245 242 236 228 220 213 205 199 191 185 181 175 178 173 172 174 176 177 176 178 177 174 174 176 180 181 181 176 176 179 177
281 283 286 293 300 294 285 281 278 275 271 268 265 259 255 252 251 249 242 240 232 227 219 214 205 199 193 189 184 179 173 175 174 173 178 181 180 180 179 180 177 180 181 183 183 180 180 177 186
285 283 288 294 304 288 287 282 274 272 271 271 268 263 258 251 249 247 243 237 230 228 220 215 207 198 194 190 184 174 165 167 177 179 180 185 184 183 182 184 182 183 184 185 186 186 187 183 189
292 293 292 292 296 295 296 293 288 293 293 295 291 280 266 260 253 250 248 241 232 230 225 221 210 200 194 189 188 181 180 181 185 182 181 184 187 186 185 186 187 185 188 188 189 192 193 191 188
289 301 291 283 283 283 273 270 285 301 301 306 305 298 286 278 265 258 251 246 240 234 226 224 211 203 195 191 192 189 190 188 180 183 183 185 187 189 188 188 188 189 191 191 190 192 196 198 198
296 297 285 266 262 265 266 260 292 325 315 316 320 323 315 303 286 269 258 248 244 237 232 227 209 205 198 195 195 196 193 188 183 186 183 185 186 188 191 190 190 192 193 194 193 194 199 201 204
318 316 300 273 241 263 287 263 288 335 338 331 330 335 336 335 323 304 290 264 247 238 234 229 212 206 201 200 199 200 197 192 190 188 187 185 187 189 192 190 193 194 195 195 194 196 200 204 205
307 302 305 305 299 305 292 266 318 351 349 347 349 348 347 344 339 332 319 302 274 254 243 232 215 210 206 203 203 201 201 197 194 192 191 191 192 192 191 192 194 195 194 195 195 197 200 204 207
304 306 299 284 282 277 272 281 311 355 359 360 359 356 351 349 345 334 325 316 301 282 256 236 220 212 209 208 205 203 201 201 198 193 195 195 195 191 191 192 194 195 195 195 195 201 200 203 207
282 300 291 286 297 289 286 304 334 349 352 353 351 349 348 348 348 343 335 324 314 299 284 246 226 219 216 211 208 205 203 203 199 194 195 195 195 191 191 193 195 195 195 195 197 201 203 204 207
294 282 287 282 286 295 299 312 5 345 345 342 342 344 343 343 344 343 339 331 319 310 296 263 235 230 224 218 213 208 206 204 201 199 197 197 194 193 192 193 194 195 196 196 199 202 201 205 208
262 273 274 284 285 277 282 286 357 343 337 335 335 339 341 344 344 343 343 340 329 317 308 291 255 240 234 227 219 212 207 205 203 201 199 196 195 193 193 192 194 196 197 198 200 202 202 205 209